Lid_Strength_Index
4 5 5 4 3 3 3 3 3 3 3 2 2 2 2 2 3 8 10 7 3 -1 -0 5 8 9 9 11 10 12 15 16 15 14 14 13 13 12 11 12 11 10 11 9 9
4 4 5 4 3 3 3 3 3 3 3 3 2 2 2 2 8 10 4 2 1 -1 7 9 10 9 12 12 12 13 15 15 14 14 15 14 14 13 13 14 13 11 10 10 10
4 4 4 5 4 4 4 4 3 3 3 2 2 2 2 5 11 11 2 2 1 1 6 7 9 10 12 12 13 14 15 14 13 13 13 13 14 13 14 14 13 13 11 11 11
4 4 4 4 4 4 4 4 3 3 3 3 2 2 3 9 16 9 3 3 2 4 7 9 10 12 14 14 13 15 14 13 12 12 13 14 13 14 13 13 11 11 10 11 11
4 4 4 3 4 3 4 4 3 3 3 3 2 2 8 13 13 8 4 5 6 7 8 10 11 12 14 14 13 14 14 12 12 13 13 12 13 14 14 12 11 11 10 10 11
3 3 3 3 3 3 4 4 4 3 3 3 3 3 11 16 9 8 8 7 8 8 9 9 11 11 13 14 15 14 13 14 13 13 13 14 14 14 13 13 13 11 11 11 11
3 3 3 3 3 3 3 4 4 3 3 4 3 8 12 13 10 9 8 8 8 9 9 9 9 12 13 14 12 13 16 14 14 14 14 14 16 15 13 13 12 12 12 11 11
3 3 3 3 3 3 3 4 4 3 3 4 4 11 14 9 10 9 9 9 8 9 8 9 9 11 13 13 14 15 16 18 16 15 14 15 18 16 14 14 13 13 13 12 12
3 3 3 3 3 3 3 3 3 4 4 4 10 13 15 7 11 10 9 10 10 10 8 8 10 12 13 15 17 17 20 19 17 14 15 16 17 15 14 14 14 14 13 13 13
3 3 3 3 3 2 3 4 4 6 7 9 10 14 13 13 11 10 10 9 11 11 11 11 14 16 16 17 19 19 21 20 19 17 16 17 16 14 13 14 14 15 14 14 13
2 2 3 3 3 3 7 10 12 13 12 15 14 14 13 11 10 11 10 10 12 13 17 14 16 19 18 17 17 18 20 20 19 16 17 18 18 16 14 15 16 15 14 14 14
2 3 3 3 2 3 8 12 13 12 15 12 12 12 12 11 13 12 10 13 14 17 16 17 19 17 15 16 17 18 19 21 19 17 17 18 17 16 16 15 15 15 14 14 14
3 3 3 3 3 7 10 11 8 9 15 14 12 13 13 11 14 14 12 13 15 16 17 18 17 15 16 17 18 18 20 21 19 17 18 18 20 19 17 15 14 14 14 14 14
3 3 3 3 7 9 9 7 8 9 18 16 15 13 12 12 15 12 12 13 15 17 17 17 16 17 17 18 18 20 18 18 18 19 21 19 22 20 18 16 15 15 14 14 14
4 3 3 4 9 9 8 7 7 10 25 15 15 11 12 15 14 14 12 14 16 16 17 18 18 18 18 18 17 19 17 18 18 18 20 20 22 19 19 17 17 16 15 15 14
4 4 4 6 8 8 7 8 9 18 24 18 15 15 15 14 14 14 14 13 14 16 17 17 16 17 17 16 16 16 18 19 19 19 26 20 23 21 20 18 17 17 16 14 14
4 4 6 8 10 7 7 10 17 24 17 19 18 15 15 16 16 15 16 17 18 20 20 18 18 17 16 17 17 18 20 25 24 25 24 21 22 19 18 18 17 16 15 14 14
3 4 6 8 8 8 9 13 24 22 19 16 15 15 16 15 16 16 17 18 17 18 22 20 20 18 17 17 18 19 20 23 26 26 24 21 22 19 18 17 15 15 15 14 14
3 5 8 8 8 8 13 20 21 19 16 17 16 17 17 16 16 17 18 19 17 17 17 20 20 17 16 16 17 19 20 19 24 28 26 22 21 18 18 16 16 15 15 15 14
4 7 8 7 7 9 15 18 20 16 16 16 17 16 18 17 17 17 18 17 16 16 17 18 21 19 17 16 17 18 17 21 23 25 26 24 22 20 19 18 17 16 15 15 15
6 9 8 7 7 12 18 19 17 15 15 17 17 17 16 17 16 17 17 17 16 17 17 18 18 20 19 20 20 19 21 20 20 22 25 27 20 19 18 18 18 17 16 15 15
7 13 8 6 14 15 16 17 14 15 14 15 15 15 16 16 16 16 17 16 15 16 17 17 18 22 21 19 18 19 20 19 21 24 25 24 22 17 17 18 18 17 15 15 15
10 12 8 9 16 16 17 16 14 14 15 15 15 13 14 15 17 16 16 16 16 17 17 17 20 23 21 19 19 19 18 19 20 21 25 24 21 16 17 17 17 17 15 15 15
11 15 14 12 12 14 17 17 16 13 14 14 14 13 14 16 15 17 17 16 15 16 12 14 21 18 18 17 19 23 20 19 20 25 23 22 20 17 17 18 16 16 15 15 16
10 14 14 16 16 15 14 16 16 16 14 14 15 14 15 17 18 18 16 16 15 14 17 16 19 24 23 20 19 19 21 20 22 20 21 18 20 15 17 16 16 16 15 15 16
13 14 13 14 12 14 14 16 15 15 15 16 16 15 14 15 14 16 15 16 16 16 17 17 20 22 22 23 21 21 19 20 20 22 21 20 19 14 13 15 17 16 16 15 15
8 8 11 12 14 14 15 15 15 13 14 12 14 13 14 12 12 13 14 14 15 16 18 17 20 20 22 24 23 21 17 19 19 19 18 20 14 14 15 15 16 15 15 15 14